Weather in Konezavodsky

Russia / Omsk Oblast     54°56′42″N   72°51′09″E
temp.,
°C
wind,
m/s
gust,
m/s
humid.,
%
clouds,
%
prec.,
mm/h
press.,
hPa
HPBL,
m
5 december, sun
sun500:00−2ssw51394100 0.0 1024281
03:00+1ssw61392100 0.0 1022451
06:00−1sw5139435 0.0 1021287
09:00−2sw61590100 0.0 1020309
12:000sw6159045 0.0 1020378
15:000sw6158983 0.0 1018395
18:00−1sw6159099 0.0 1018310
21:00−2sw61590100 0.0 1017315
6 december, mon
mon600:00−4sw5129190 0.0 1017244
03:00−5sw41092100 0.0 1017191
06:00−5sw3796100 0.2 1017160
09:00−3sw2497100 0.8 1017157
12:00−2sw2498100 1.6 1016198
15:00−2sw3597100 0.5 1014264
18:00−3sw3797100 0.8 1014249
21:00−3w4897100 1.2 1013319
7 december, tue
tue700:00−5nw6109378 1.6 1016425
03:00−10nw5119499 0.0 1019336
06:00−14nw5109495 0.1 1023299
09:00−19wnw49955 0.0 1027188
12:00−18wnw37945 0.0 1030200
15:00−18w35945 0.0 1032123
18:00−21wsw34985 0.0 103457
21:00−21wsw34985 0.0 103557
8 december, wed
wed800:00−22wsw35985 0.0 103659
03:00−21sw37975 0.0 103693
06:00−21wsw37995 0.0 1035100
09:00−21wsw37995 0.0 1036100
12:00−19w36975 0.0 1037131
15:00−18w35955 0.0 1037105
18:00−20wnw35975 0.0 103958
21:00−21w34975 0.0 104046
9 december, thu
thu900:00−22w3498100 0.0 104139
03:00−18wsw3594100 0.0 1042102
06:00−16sw3690100 0.0 1041129
09:00−14sw3787100 0.0 1041158
12:00−11ssw498698 0.0 1040237
15:00−9ssw51195100 0.1 1039336
18:00−8sw61394100 0.7 1038458
21:00−7sw5119599 0.7 1037435